Presure
101 150 155 136 133 148 149 153 152 156 102 89 90 129 114 94 150 146 126 137 155 146 145 138 139 143 145 152 150 135 157 128 130 170 154 118 126 125 126 130 135 132 202 206 211
164 151 144 131 124 142 144 148 128 111 163 91 93 95 95 115 157 158 139 164 148 159 145 146 150 133 142 132 144 148 128 142 136 145 146 137 118 128 159 148 201 172 192 192 214
177 141 92 151 135 134 147 128 130 88 178 143 130 142 107 124 152 154 138 167 152 145 156 149 146 141 151 123 148 136 160 133 139 118 124 124 127 121 135 131 127 170 203 194 208
189 149 130 91 128 84 140 151 188 88 178 171 98 103 142 99 123 134 118 159 132 146 143 148 153 140 146 123 136 148 123 152 133 137 140 125 153 126 116 121 180 158 185 202 197
172 185 126 122 88 99 83 84 141 89 164 134 98 157 90 116 120 155 131 143 165 145 135 158 141 168 138 151 135 133 146 131 124 131 133 136 118 140 119 112 142 167 177 162 160
151 135 83 178 132 111 114 115 156 113 100 164 108 89 164 162 92 132 155 131 140 144 137 146 180 156 149 148 145 128 142 139 154 125 126 119 143 117 118 118 103 169 169 155 168
157 180 201 145 143 170 175 90 173 93 126 166 148 135 131 173 154 177 139 156 138 147 139 170 144 150 156 146 160 143 129 104 144 115 130 122 143 127 130 121 109 164 141 173 167
160 120 162 204 179 164 163 139 136 145 150 115 125 170 144 167 166 176 142 130 149 168 149 141 166 148 157 148 143 156 145 141 139 110 111 118 120 110 112 115 112 121 161 168 147
181 156 160 179 154 167 160 156 130 136 146 154 112 157 167 125 147 131 144 169 141 157 148 147 151 150 142 152 140 164 156 127 121 128 112 112 124 123 108 129 97 105 139 169 159
172 137 141 134 159 149 169 169 190 138 126 167 151 147 130 152 132 157 138 169 139 128 152 146 158 163 149 144 162 152 170 126 114 117 113 114 118 148 100 138 96 100 151 157 159
159 189 138 125 144 166 125 152 176 174 185 190 177 151 169 182 126 167 166 137 149 143 127 147 153 164 155 153 145 157 130 134 124 125 123 141 117 116 103 160 99 105 146 154 152
104 170 143 130 148 176 143 164 160 165 132 146 142 139 128 131 164 131 162 141 142 152 160 136 148 151 161 138 145 148 152 140 160 157 118 117 121 115 112 124 144 101 147 155 147
205 188 187 142 166 186 124 146 151 165 181 135 142 181 157 135 167 141 166 137 149 174 142 172 147 136 143 152 141 149 150 142 154 132 138 131 120 136 160 129 96 97 153 148 150
245 211 209 181 164 177 182 182 127 191 155 177 155 155 177 132 135 126 138 139 133 136 138 163 136 153 131 140 141 136 141 146 163 146 131 155 126 124 146 164 136 138 148 141 142
254 293 116 130 209 154 171 189 157 194 173 136 194 140 166 151 164 146 151 147 152 142 133 138 141 128 148 126 139 144 153 145 151 138 144 126 128 112 149 171 154 152 145 118 147
240 237 213 292 251 212 183 194 189 151 151 164 162 131 146 134 181 180 148 146 175 143 140 159 138 140 133 138 125 131 145 139 138 165 130 126 149 111 166 158 126 153 146 143 139
221 274 275 283 256 284 202 191 148 197 179 179 165 180 187 189 165 173 161 137 163 136 147 145 156 148 149 186 143 156 138 146 145 157 153 160 126 131 180 152 97 148 146 136 149
220 267 266 263 269 281 297 279 198 193 191 180 193 141 157 172 118 151 164 191 160 181 150 175 148 168 148 137 134 148 154 140 150 136 147 153 144 158 158 152 150 143 155 142 147
226 263 264 264 257 272 278 255 143 145 110 113 159 129 185 172 173 177 178 183 153 161 130 178 138 141 146 149 154 140 152 156 136 145 150 174 146 148 174 158 157 149 144 156 144
218 230 253 255 221 262 273 276 254 255 206 203 212 197 151 177 186 182 180 164 174 166 175 143 142 136 133 150 144 144 141 154 148 147 142 158 152 160 179 156 180 177 159 139 150
216 239 254 262 247 257 221 265 254 242 222 139 205 180 145 191 194 162 153 151 152 183 174 147 171 188 145 138 152 144 155 148 144 168 156 153 176 167 156 157 175 155 165 150 133
219 241 247 262 251 244 257 273 245 248 227 213 210 216 209 136 199 194 193 140 140 142 184 168 176 147 175 146 149 143 161 153 153 134 137 163 157 166 163 148 180 153 141 159 133
216 252 212 257 260 253 253 256 253 240 241 232 215 212 209 206 200 196 176 190 196 181 178 187 176 157 137 134 174 144 149 137 138 138 171 169 168 158 169 170 164 173 182 154 155
223 233 232 260 248 251 256 247 260 238 229 225 217 216 213 205 197 126 141 197 161 177 151 165 149 137 141 146 178 159 133 145 168 162 154 148 142 149 146 149 150 174 138 184 119
223 223 226 256 261 248 246 248 260 244 229 192 208 205 209 204 196 191 187 186 130 176 148 154 184 127 172 179 148 159 163 174 133 142 161 151 144 177 182 169 177 149 166 136 138
221 219 209 192 252 246 241 239 246 253 227 225 212 205 190 201 203 201 194 143 149 183 185 170 175 175 122 176 182 178 184 181 175 123 149 172 172 187 158 134 141 171 208 124 128
221 216 211 201 242 241 239 234 214 242 249 228 221 214 202 196 204 203 189 198 193 146 182 184 185 175 164 177 161 144 174 160 179 131 184 177 181 191 131 163 126 136 160 211 205
Wind_Speed
36 55 61 53 47 53 49 51 48 48 25 18 17 32 24 14 37 36 29 30 24 25 24 27 24 20 19 17 19 21 20 16 15 26 20 15 19 23 27 28 28 29 24 22 20
63 59 58 53 45 52 51 50 43 29 50 21 21 19 18 27 40 36 37 30 30 25 26 26 24 26 21 22 20 20 16 16 17 21 21 20 21 24 25 27 31 29 29 27 24
75 56 34 65 55 51 55 45 45 24 62 46 38 43 26 31 40 36 40 33 31 31 26 29 28 29 23 18 24 20 22 18 20 18 19 18 22 24 26 29 28 30 30 29 26
81 64 55 36 51 30 56 58 66 26 62 59 29 28 41 24 29 32 23 35 33 34 33 31 27 31 29 21 27 25 18 22 22 22 26 23 26 24 25 30 29 31 33 28 27
72 81 55 52 35 39 29 29 57 31 57 46 32 51 25 38 33 44 38 41 40 40 35 37 36 35 32 28 27 28 27 25 20 22 25 29 22 29 22 21 28 30 32 29 32
70 59 34 75 56 46 49 48 64 45 38 62 38 31 58 52 28 39 45 34 42 43 39 39 44 35 34 32 32 26 28 31 27 21 23 21 31 24 25 25 26 29 29 32 36
69 78 86 62 62 70 70 41 69 40 46 64 54 49 44 60 49 59 45 45 44 46 44 37 39 37 36 36 33 34 32 20 31 19 26 25 34 31 31 30 25 35 34 32 34
74 59 67 87 79 71 68 65 55 59 61 46 47 67 50 57 56 64 49 34 47 49 48 44 37 39 38 41 34 34 36 37 27 20 20 25 25 24 23 28 28 34 36 35 37
86 70 72 81 63 71 71 68 58 55 64 68 45 61 64 43 53 40 52 58 42 52 50 49 46 43 39 42 36 38 36 31 26 32 24 25 35 31 24 31 29 34 41 38 36
85 60 70 61 66 67 72 74 83 62 52 67 58 60 50 58 45 60 47 59 49 37 54 51 47 44 43 40 40 39 36 36 26 28 26 27 35 45 31 36 30 36 44 43 42
78 86 61 66 67 77 69 65 79 77 79 79 77 62 70 71 46 64 63 49 57 53 37 52 50 48 47 47 42 43 39 38 38 39 36 36 31 34 35 47 35 40 47 47 45
60 83 63 65 72 89 62 78 72 75 59 67 62 58 49 52 67 51 64 56 55 59 58 44 51 49 52 40 43 45 44 46 44 42 34 32 33 33 34 42 48 41 48 48 48
99 95 92 72 78 90 67 68 72 76 87 61 68 81 77 54 72 60 66 57 62 63 53 58 53 44 46 52 45 47 47 47 47 47 45 46 39 53 50 41 40 44 52 50 51
83 100 101 94 82 86 92 90 65 92 69 88 74 74 78 59 63 54 65 63 50 50 52 62 49 55 41 46 49 46 50 50 51 48 44 50 45 40 54 49 47 50 54 52 51
71 52 62 69 103 80 86 97 67 95 83 67 92 68 73 72 76 71 74 67 61 59 53 57 56 42 57 42 50 54 56 53 52 50 48 49 48 32 56 50 54 52 55 49 56
73 79 60 51 102 107 97 103 104 62 67 82 74 69 70 58 82 77 75 72 72 69 62 70 54 56 49 53 46 47 56 53 52 58 47 48 55 34 58 56 51 54 57 55 55
78 55 56 57 62 66 104 103 71 106 93 94 76 88 93 88 77 78 77 66 77 62 72 55 71 64 65 68 59 64 55 56 55 63 57 62 53 48 55 54 47 57 59 56 61
77 62 60 59 64 63 69 83 107 110 108 100 106 67 67 78 49 77 76 86 80 76 76 73 68 71 65 54 53 64 67 57 60 55 58 62 59 68 63 61 60 61 62 60 63
73 64 63 60 66 68 73 80 62 77 54 52 83 61 98 79 80 82 84 85 86 82 54 76 60 61 63 65 71 59 67 67 55 61 61 62 61 63 60 62 62 62 61 65 65
76 71 62 64 68 67 72 84 90 99 116 116 107 110 74 91 92 89 88 78 79 86 78 68 60 58 55 68 66 63 60 68 64 65 58 68 69 65 58 65 60 62 64 60 65
78 71 64 68 71 64 64 82 96 103 111 72 114 98 80 102 102 84 75 80 72 82 83 75 82 79 65 60 75 65 75 65 60 63 75 73 70 79 71 69 63 67 67 66 56
77 68 67 67 71 70 65 69 94 103 107 114 114 108 108 76 105 100 96 72 70 69 86 75 81 75 77 72 72 66 79 75 75 55 59 79 81 75 75 68 67 67 63 70 56
78 62 73 65 65 65 66 71 94 98 99 107 110 110 109 108 107 104 88 96 95 86 85 86 82 86 59 53 79 67 70 59 60 61 76 69 73 73 73 72 72 71 72 69 71
76 68 68 60 63 67 66 73 76 102 102 103 107 105 107 107 103 65 78 99 82 85 85 77 70 70 71 76 77 82 58 72 79 81 78 80 73 72 71 70 74 75 63 78 52
74 67 59 57 59 65 66 71 72 102 105 97 110 106 107 107 108 105 101 97 64 86 83 82 88 63 83 78 75 77 82 74 61 69 80 84 68 84 81 76 81 75 74 64 66
70 64 65 74 62 67 71 70 72 75 107 106 107 110 105 107 107 108 106 85 82 100 97 82 84 85 60 83 84 76 82 82 80 51 80 83 83 86 75 64 73 82 94 59 64
70 67 69 72 59 66 65 69 70 79 82 111 112 112 113 111 110 111 106 108 105 76 96 98 97 86 81 81 75 83 84 79 84 64 86 83 85 90 66 81 56 64 80 95 90
Wind_Direction
225 228 230 232 229 232 228 232 230 231 235 234 240 230 252 254 248 219 262 238 241 232 232 239 240 239 245 274 275 256 304 277 283 338 314 320 306 307 310 310 300 305 321 309 297
233 233 227 234 231 232 230 229 235 231 232 241 243 244 246 245 248 256 236 267 239 250 237 238 244 249 256 254 268 261 280 277 289 273 278 277 309 293 328 331 339 334 330 315 307
235 235 225 229 235 235 232 231 231 237 234 231 236 236 247 254 244 230 240 261 233 233 257 240 239 239 263 273 261 255 298 269 257 301 298 292 289 302 322 299 309 330 328 319 315
228 229 231 225 236 224 236 232 229 240 230 233 243 244 238 254 256 251 261 237 255 235 241 241 250 242 244 273 254 259 278 292 266 269 283 282 304 289 307 310 331 323 336 329 324
229 234 234 226 227 232 233 233 234 236 235 237 248 236 252 243 244 241 255 239 251 241 254 260 244 281 251 254 268 256 264 265 276 275 279 284 297 308 304 312 320 326 337 324 325
232 231 229 234 228 231 232 236 233 235 237 235 241 252 240 242 257 247 236 258 246 243 255 247 281 259 250 249 251 269 272 260 295 282 283 289 301 298 302 305 311 324 326 317 328
235 232 230 231 233 230 231 231 231 231 236 235 234 242 242 241 233 248 244 236 251 244 254 261 251 254 260 252 270 256 265 268 271 282 286 292 296 292 301 302 304 315 313 325 322
236 233 227 228 230 233 231 237 236 233 236 243 242 238 242 239 242 248 239 252 246 248 245 255 256 251 260 258 256 264 262 266 281 281 286 291 288 288 293 301 303 304 314 320 310
228 239 238 231 235 236 234 238 239 235 240 236 245 237 236 248 232 247 239 248 247 243 248 253 250 252 257 259 260 273 267 265 273 276 281 286 293 294 291 301 309 304 318 319 316
232 223 227 223 240 240 235 235 231 235 238 234 237 239 243 239 249 237 250 244 248 253 246 254 251 250 256 262 265 264 275 264 270 277 278 285 292 299 289 301 304 301 314 315 319
234 230 227 230 225 241 236 235 234 233 235 236 237 241 236 237 251 238 240 254 243 249 260 253 254 253 254 258 262 266 266 267 274 275 280 285 286 289 287 300 297 299 312 312 315
236 231 232 236 229 237 230 233 234 237 241 240 245 246 242 244 238 250 240 248 248 244 248 257 253 256 256 261 264 266 268 267 278 282 280 279 280 286 281 296 298 302 307 306 311
230 232 231 233 234 233 237 222 237 235 235 249 241 239 240 246 233 247 240 251 247 248 253 250 253 259 260 260 262 267 268 268 276 276 280 285 288 292 293 293 302 306 304 306 309
229 230 229 231 234 233 236 235 237 232 234 239 232 239 239 244 246 247 249 249 254 253 257 248 258 255 261 263 265 266 269 272 276 275 282 283 291 291 294 292 294 299 302 307 309
231 219 234 229 228 234 234 235 232 234 236 241 237 240 237 236 239 244 244 247 248 253 257 256 258 258 258 262 266 267 268 272 275 276 280 284 290 275 293 295 293 297 299 307 305
229 226 222 216 226 227 231 230 236 228 238 238 238 243 238 239 241 238 245 249 245 251 254 251 257 261 262 262 264 268 268 272 274 275 282 284 287 276 284 288 292 294 296 301 307
226 221 221 216 217 217 227 230 238 234 240 238 241 241 241 241 236 241 237 249 242 254 253 255 251 258 258 262 265 262 270 272 276 275 281 281 285 287 288 284 293 292 293 303 301
228 223 221 220 217 217 215 213 229 234 236 239 238 229 232 241 240 241 238 245 245 248 253 251 257 253 259 262 266 266 267 272 274 278 282 281 290 284 287 288 288 292 289 299 299
228 223 221 214 219 219 213 210 227 232 240 239 234 242 245 241 241 243 246 246 246 248 251 251 258 260 262 260 262 268 268 269 275 281 284 276 287 287 281 284 285 288 292 290 295
227 226 222 219 223 218 215 205 208 212 229 234 232 239 227 242 242 241 244 246 243 245 248 254 253 259 261 262 265 268 270 269 273 278 283 279 282 284 285 284 294 290 288 295 292
226 224 223 219 221 217 221 206 208 214 222 235 235 238 239 243 246 244 247 246 249 249 250 256 252 256 257 264 264 267 267 270 274 275 275 280 279 277 281 283 288 285 286 288 304
224 222 223 219 223 221 209 215 210 213 219 227 231 233 237 241 244 245 246 249 252 254 251 250 250 258 254 263 265 267 264 269 271 274 278 273 276 276 280 283 289 285 289 286 301
224 221 225 220 220 222 213 213 213 214 215 222 228 230 234 238 242 245 246 249 250 248 247 252 250 252 256 260 267 266 268 269 272 274 270 274 271 278 281 285 284 286 295 286 286
221 222 224 214 212 219 214 215 215 212 217 221 227 228 231 235 239 249 247 248 241 248 248 252 256 252 256 262 261 261 266 265 265 267 271 273 279 276 279 287 284 287 289 295 291
221 222 223 218 211 214 212 216 221 214 215 227 231 233 232 235 240 242 246 248 248 248 250 255 256 260 253 259 260 261 264 272 270 272 268 271 282 279 284 283 285 282 293 296 298
220 220 222 225 215 210 213 214 220 221 218 220 227 231 239 237 238 240 244 244 243 251 253 248 253 255 258 259 263 266 273 271 267 276 269 277 275 283 279 285 282 281 294 293 298
216 218 221 222 215 213 214 215 222 220 220 221 224 227 233 237 236 239 245 245 245 251 253 255 257 256 256 262 263 262 267 267 271 276 277 274 277 285 283 286 287 289 288 293 292